RYR8FZ LEPA-EGPH

Flight info

Callsign RYR8FZ
Flight time 2h 36m
Altitude 34000
Route DRAGO N863 GIROM/N0447F360 DCT GONUP DCT TUPAR UY120 IBSUS/N0444F380 UY120 AKIKI UN867 VASUX DCT TNT UN57 POL UN601 RIBEL DCT INPIP
Aircraft A320/M-SDE3FGHIRWY/LB1

Departure

Time 2026-04-22 11:53
Airport Palma de Mallorca Airport (LEPA)

Arrival

Time 2026-04-22 14:29
Airport Edinburgh Airport (EGPH)
Time Latitude Longitude Altitude Speed Heading
2026-04-22 11:17 39.54695 2.73391 39 ft 0 kts 240°
2026-04-22 11:35 39.54697 2.73395 38 ft 2 kts 239°
2026-04-22 11:35 39.54707 2.73415 38 ft 3 kts 229°
2026-04-22 11:36 39.54721 2.73433 35 ft 3 kts 213°
2026-04-22 11:36 39.54738 2.73445 38 ft 3 kts 191°
2026-04-22 11:36 39.54758 2.73446 38 ft 3 kts 163°
2026-04-22 11:36 39.54768 2.73441 38 ft 0 kts 149°
2026-04-22 11:40 39.54764 2.73444 36 ft 0 kts 149°
2026-04-22 11:40 39.54759 2.73448 37 ft 3 kts 149°
2026-04-22 11:41 39.54738 2.73464 37 ft 2 kts 149°
2026-04-22 11:41 39.54722 2.73477 38 ft 4 kts 149°
2026-04-22 11:41 39.54694 2.73498 38 ft 5 kts 149°
2026-04-22 11:41 39.54669 2.73518 38 ft 4 kts 149°
2026-04-22 11:42 39.54640 2.73541 37 ft 4 kts 149°
2026-04-22 11:42 39.54622 2.73565 38 ft 3 kts 114°
2026-04-22 11:42 39.54626 2.73587 38 ft 2 kts 65°
2026-04-22 11:42 39.54631 2.73600 38 ft 2 kts 62°
2026-04-22 11:43 39.54650 2.73647 38 ft 7 kts 62°
2026-04-22 11:43 39.54672 2.73699 38 ft 6 kts 61°
2026-04-22 11:43 39.54690 2.73741 37 ft 6 kts 60°
2026-04-22 11:43 39.54712 2.73788 38 ft 6 kts 58°
2026-04-22 11:44 39.54732 2.73829 38 ft 6 kts 58°
2026-04-22 11:44 39.54760 2.73887 38 ft 8 kts 58°
2026-04-22 11:44 39.54789 2.73947 38 ft 7 kts 57°
2026-04-22 11:44 39.54819 2.73992 38 ft 6 kts 32°
2026-04-22 11:45 39.54856 2.73990 38 ft 6 kts 334°
2026-04-22 11:45 39.54892 2.73964 38 ft 5 kts 331°
2026-04-22 11:45 39.54916 2.73956 38 ft 4 kts
2026-04-22 11:45 39.54944 2.73990 38 ft 6 kts 61°
2026-04-22 11:46 39.54957 2.74015 38 ft 3 kts 42°
2026-04-22 11:46 39.54976 2.74007 38 ft 3 kts 334°
2026-04-22 11:46 39.54996 2.73990 38 ft 7 kts 327°
2026-04-22 11:46 39.55057 2.73941 37 ft 12 kts 329°
2026-04-22 11:47 39.55135 2.73879 38 ft 14 kts 329°
2026-04-22 11:47 39.55221 2.73811 37 ft 15 kts 328°
2026-04-22 11:47 39.55315 2.73737 38 ft 16 kts 330°
2026-04-22 11:47 39.55410 2.73666 38 ft 15 kts 329°
2026-04-22 11:48 39.55499 2.73596 38 ft 14 kts 328°
2026-04-22 11:48 39.55571 2.73538 38 ft 9 kts 328°
2026-04-22 11:48 39.55607 2.73510 37 ft 3 kts 328°
2026-04-22 11:48 39.55628 2.73494 38 ft 4 kts 333°
2026-04-22 11:49 39.55647 2.73495 38 ft 3 kts 19°
2026-04-22 11:49 39.55674 2.73542 38 ft 8 kts 59°
2026-04-22 11:49 39.55707 2.73611 38 ft 10 kts 58°
2026-04-22 11:49 39.55744 2.73691 38 ft 10 kts 58°
2026-04-22 11:50 39.55778 2.73762 38 ft 9 kts 58°
2026-04-22 11:50 39.55811 2.73832 38 ft 9 kts 58°
2026-04-22 11:50 39.55841 2.73894 38 ft 7 kts 58°
2026-04-22 11:50 39.55872 2.73910 38 ft 4 kts 348°
2026-04-22 11:51 39.55897 2.73893 37 ft 4 kts 328°
2026-04-22 11:51 39.55928 2.73868 38 ft 8 kts 330°
2026-04-22 11:51 39.55984 2.73833 38 ft 7 kts 344°
2026-04-22 11:51 39.56012 2.73819 36 ft 2 kts 307°
2026-04-22 11:52 39.55998 2.73778 36 ft 12 kts 238°
2026-04-22 11:52 39.55834 2.73434 37 ft 80 kts 238°
2026-04-22 11:52 39.55436 2.72591 38 ft 137 kts 238°
2026-04-22 11:52 39.54897 2.71429 391 ft 154 kts 239°
2026-04-22 11:53 39.54330 2.70238 1071 ft 157 kts 235°
2026-04-22 11:53 39.53724 2.69051 1763 ft 158 kts 237°
2026-04-22 11:53 39.53107 2.67834 2243 ft 171 kts 237°
2026-04-22 11:53 39.52409 2.66464 2548 ft 193 kts 237°
2026-04-22 11:54 39.51631 2.64932 2886 ft 213 kts 237°
2026-04-22 11:54 39.50804 2.63304 3581 ft 218 kts 237°
2026-04-22 11:54 39.49953 2.61635 3980 ft 224 kts 237°
2026-04-22 11:54 39.49128 2.59903 4084 ft 236 kts 248°
2026-04-22 11:55 39.48871 2.57756 4485 ft 258 kts 278°
2026-04-22 11:55 39.49618 2.55669 5549 ft 248 kts 308°
2026-04-22 11:55 39.50675 2.54012 6693 ft 239 kts 309°
2026-04-22 11:55 39.51740 2.52371 7614 ft 238 kts 310°
2026-04-22 11:56 39.52812 2.50733 8514 ft 239 kts 310°
2026-04-22 11:56 39.53889 2.49088 9400 ft 240 kts 310°
2026-04-22 11:56 39.54974 2.47433 10254 ft 242 kts 310°
2026-04-22 11:56 39.56064 2.45767 11066 ft 243 kts 310°
2026-04-22 11:57 39.57161 2.44087 11850 ft 245 kts 309°
2026-04-22 11:57 39.58265 2.42393 12632 ft 247 kts 309°
2026-04-22 11:57 39.59381 2.40682 13400 ft 250 kts 309°
2026-04-22 11:57 39.60507 2.38956 14136 ft 252 kts 309°
2026-04-22 11:58 39.61670 2.37170 14526 ft 270 kts 309°
2026-04-22 11:58 39.62933 2.35230 14716 ft 293 kts 309°
2026-04-22 11:58 39.64299 2.33128 14870 ft 316 kts 309°
2026-04-22 11:58 39.65758 2.30886 15165 ft 332 kts 309°
2026-04-22 11:59 39.67263 2.28579 15759 ft 337 kts 309°
2026-04-22 11:59 39.68787 2.26241 16409 ft 341 kts 308°
2026-04-22 11:59 39.70327 2.23872 17059 ft 345 kts 308°
2026-04-22 11:59 39.71883 2.21475 17713 ft 349 kts 308°
2026-04-22 12:00 39.73453 2.19050 18361 ft 352 kts 308°
2026-04-22 12:00 39.75036 2.16598 18918 ft 356 kts 308°
2026-04-22 12:00 39.76634 2.14125 19494 ft 359 kts 308°
2026-04-22 12:00 39.78224 2.11666 20069 ft 361 kts 308°
2026-04-22 12:01 39.79870 2.09119 20656 ft 364 kts 308°
2026-04-22 12:01 39.81504 2.06592 21237 ft 367 kts 308°
2026-04-22 12:01 39.83155 2.04036 21811 ft 371 kts 308°
2026-04-22 12:01 39.84799 2.01493 22382 ft 374 kts 308°
2026-04-22 12:02 39.86474 1.98889 22958 ft 377 kts 308°
2026-04-22 12:02 39.88161 1.96260 23530 ft 380 kts 308°
2026-04-22 12:02 39.89865 1.93610 24016 ft 383 kts 308°
2026-04-22 12:02 39.91579 1.90942 24489 ft 385 kts 308°
2026-04-22 12:03 39.93304 1.88253 24960 ft 388 kts 308°
2026-04-22 12:03 39.95039 1.85546 25417 ft 390 kts 308°
2026-04-22 12:03 39.96783 1.82819 25861 ft 393 kts 308°
2026-04-22 12:03 39.98539 1.80076 26301 ft 395 kts 310°
2026-04-22 12:04 40.00525 1.77577 26722 ft 399 kts 320°
2026-04-22 12:04 40.02867 1.75599 27130 ft 404 kts 331°
2026-04-22 12:04 40.05470 1.74167 27549 ft 408 kts 337°
2026-04-22 12:04 40.08116 1.72829 27963 ft 410 kts 336°
2026-04-22 12:05 40.10778 1.71470 28376 ft 412 kts 336°
2026-04-22 12:05 40.13451 1.70096 28779 ft 414 kts 336°
2026-04-22 12:05 40.16136 1.68713 29170 ft 416 kts 336°
2026-04-22 12:05 40.18835 1.67323 29554 ft 418 kts 336°
2026-04-22 12:06 40.21548 1.65925 29919 ft 420 kts 336°
2026-04-22 12:06 40.24275 1.64518 30242 ft 422 kts 336°
2026-04-22 12:06 40.27016 1.63102 30540 ft 424 kts 336°
2026-04-22 12:06 40.29768 1.61683 30836 ft 426 kts 336°
2026-04-22 12:07 40.32496 1.60277 31119 ft 428 kts 336°
2026-04-22 12:07 40.35268 1.58849 31458 ft 428 kts 336°
2026-04-22 12:07 40.38031 1.57423 31873 ft 426 kts 336°
2026-04-22 12:07 40.40770 1.56006 32505 ft 418 kts 336°
2026-04-22 12:08 40.43452 1.54616 33178 ft 411 kts 336°
2026-04-22 12:08 40.46096 1.53243 33708 ft 408 kts 336°
2026-04-22 12:08 40.48733 1.51873 33974 ft 407 kts 336°
2026-04-22 12:08 40.51362 1.50506 34016 ft 406 kts 336°
2026-04-22 12:09 40.56602 1.47777 34017 ft 405 kts 336°
2026-04-22 12:09 40.61837 1.45048 34011 ft 405 kts 336°
2026-04-22 12:10 40.67075 1.42324 34009 ft 405 kts 336°
2026-04-22 12:10 40.72310 1.39593 34007 ft 405 kts 336°
2026-04-22 12:11 40.77541 1.36845 34012 ft 405 kts 336°
2026-04-22 12:11 40.82773 1.34097 34007 ft 405 kts 336°
2026-04-22 12:12 40.88001 1.31354 34005 ft 405 kts 336°
2026-04-22 12:12 40.93234 1.28603 34003 ft 404 kts 336°
2026-04-22 12:13 40.98459 1.25850 33999 ft 404 kts 336°
2026-04-22 12:13 41.03653 1.23107 33995 ft 405 kts 336°
2026-04-22 12:14 41.08885 1.20344 34002 ft 405 kts 335°
2026-04-22 12:14 41.14312 1.18367 34006 ft 410 kts 351°
2026-04-22 12:15 41.19073 1.17782 34003 ft 411 kts 352°
2026-04-22 12:15 41.24729 1.17110 34006 ft 411 kts 352°
2026-04-22 12:16 41.30424 1.16448 33998 ft 411 kts 352°
2026-04-22 12:16 41.36118 1.15786 33998 ft 411 kts 352°
2026-04-22 12:17 41.41812 1.15127 33997 ft 410 kts 352°
2026-04-22 12:17 41.47505 1.14466 33990 ft 411 kts 352°
2026-04-22 12:18 41.53194 1.13797 33987 ft 411 kts 352°
2026-04-22 12:18 41.58892 1.13130 33984 ft 411 kts 352°
2026-04-22 12:19 41.64595 1.12464 33982 ft 411 kts 352°
2026-04-22 12:19 41.70302 1.11799 33980 ft 412 kts 352°
2026-04-22 12:20 41.76012 1.11125 33977 ft 412 kts 352°
2026-04-22 12:20 41.81727 1.10453 33977 ft 412 kts 352°
2026-04-22 12:21 41.87409 1.09783 33975 ft 413 kts 352°
2026-04-22 12:21 41.93170 1.09097 33977 ft 413 kts 352°
2026-04-22 12:22 41.98849 1.08422 33975 ft 413 kts 352°
2026-04-22 12:22 42.04575 1.07750 33978 ft 413 kts 352°
2026-04-22 12:23 42.10302 1.07079 33975 ft 412 kts 352°
2026-04-22 12:23 42.15967 1.06405 33981 ft 407 kts 352°
2026-04-22 12:24 42.21610 1.05779 33984 ft 406 kts 352°
2026-04-22 12:24 42.27246 1.05188 33996 ft 406 kts 352°
2026-04-22 12:25 42.32876 1.04598 34004 ft 406 kts 352°
2026-04-22 12:25 42.38506 1.03987 34006 ft 405 kts 352°
2026-04-22 12:26 42.44122 1.03384 34008 ft 405 kts 352°
2026-04-22 12:26 42.49740 1.02771 34010 ft 404 kts 352°
2026-04-22 12:27 42.55345 1.02159 34015 ft 404 kts 352°
2026-04-22 12:27 42.60944 1.01553 34021 ft 404 kts 352°
2026-04-22 12:28 42.66538 1.00932 34016 ft 404 kts 352°
2026-04-22 12:28 42.72147 1.00305 34016 ft 405 kts 352°
2026-04-22 12:29 42.77711 0.99588 34010 ft 403 kts 346°
2026-04-22 12:29 42.83139 0.97791 34005 ft 402 kts 343°
2026-04-22 12:30 42.91268 0.94984 33995 ft 402 kts 343°
2026-04-22 12:31 42.96700 0.93112 33992 ft 403 kts 343°
2026-04-22 12:31 43.02132 0.91232 33989 ft 403 kts 342°
2026-04-22 12:32 43.07569 0.89331 33984 ft 403 kts 342°
2026-04-22 12:32 43.15734 0.86498 33978 ft 404 kts 342°
2026-04-22 12:33 43.21221 0.84597 34373 ft 408 kts 342°
2026-04-22 12:33 43.23971 0.83641 34729 ft 407 kts 342°
2026-04-22 12:33 43.26713 0.82687 35089 ft 406 kts 342°
2026-04-22 12:34 43.29442 0.81735 35447 ft 404 kts 342°
2026-04-22 12:34 43.32164 0.80783 35800 ft 403 kts 342°
2026-04-22 12:34 43.34882 0.79831 35948 ft 403 kts 342°
2026-04-22 12:34 43.37592 0.78878 35975 ft 402 kts 342°
2026-04-22 12:35 43.42999 0.76975 35967 ft 401 kts 342°
2026-04-22 12:35 43.48381 0.74983 35965 ft 400 kts 340°
2026-04-22 12:36 43.53658 0.72596 35973 ft 399 kts 338°
2026-04-22 12:36 43.58900 0.70093 35967 ft 399 kts 338°
2026-04-22 12:37 43.64154 0.67643 35974 ft 399 kts 338°
2026-04-22 12:37 43.69422 0.65240 35969 ft 399 kts 339°
2026-04-22 12:38 43.74690 0.62850 35970 ft 398 kts 339°
2026-04-22 12:38 43.79954 0.60448 35971 ft 398 kts 338°
2026-04-22 12:39 43.87799 0.56832 35967 ft 398 kts 338°
2026-04-22 12:40 43.93056 0.54406 35970 ft 398 kts 338°
2026-04-22 12:40 43.98306 0.51982 35972 ft 398 kts 338°
2026-04-22 12:41 44.03555 0.49556 35975 ft 397 kts 338°
2026-04-22 12:41 44.08797 0.47128 35973 ft 397 kts 338°
2026-04-22 12:42 44.14038 0.44693 35969 ft 397 kts 338°
2026-04-22 12:42 44.19273 0.42255 35977 ft 396 kts 338°
2026-04-22 12:43 44.24507 0.39823 35975 ft 396 kts 338°
2026-04-22 12:43 44.29740 0.37381 35967 ft 397 kts 338°
2026-04-22 12:44 44.34970 0.34927 35964 ft 396 kts 338°
2026-04-22 12:44 44.40172 0.32395 35965 ft 396 kts 337°
2026-04-22 12:45 44.45436 0.29669 35966 ft 409 kts 336°
2026-04-22 12:45 44.50764 0.26895 35966 ft 412 kts 336°
2026-04-22 12:46 44.56154 0.24123 35964 ft 413 kts 336°
2026-04-22 12:46 44.61540 0.21359 35968 ft 413 kts 337°
2026-04-22 12:47 44.66931 0.18585 35968 ft 413 kts 336°
2026-04-22 12:47 44.72320 0.15804 35965 ft 412 kts 336°
2026-04-22 12:48 44.77703 0.13007 35962 ft 412 kts 336°
2026-04-22 12:48 44.83083 0.10200 35961 ft 412 kts 336°
2026-04-22 12:49 44.88466 0.07399 35964 ft 412 kts 336°
2026-04-22 12:49 44.93851 0.04600 35959 ft 412 kts 336°
2026-04-22 12:50 44.99228 0.01799 35962 ft 412 kts 336°
2026-04-22 12:50 45.04611 -0.01021 35960 ft 412 kts 336°
2026-04-22 12:51 45.09980 -0.03838 35959 ft 412 kts 336°
2026-04-22 12:51 45.15357 -0.06664 35960 ft 412 kts 336°
2026-04-22 12:52 45.20737 -0.09485 35959 ft 412 kts 336°
2026-04-22 12:52 45.26081 -0.12295 35958 ft 412 kts 336°
2026-04-22 12:53 45.31460 -0.15136 35960 ft 412 kts 336°
2026-04-22 12:53 45.36831 -0.17983 35965 ft 412 kts 336°
2026-04-22 12:54 45.42209 -0.20835 35966 ft 412 kts 336°
2026-04-22 12:54 45.47588 -0.23687 35972 ft 412 kts 336°
2026-04-22 12:55 45.52056 -0.26071 35975 ft 412 kts 336°
2026-04-22 12:55 45.58332 -0.29433 35979 ft 412 kts 336°
2026-04-22 12:56 45.63702 -0.32314 35974 ft 412 kts 336°
2026-04-22 12:56 45.69075 -0.35187 35977 ft 412 kts 336°
2026-04-22 12:57 45.74451 -0.38069 35978 ft 413 kts 336°
2026-04-22 12:57 45.79821 -0.40960 35977 ft 413 kts 336°
2026-04-22 12:58 45.85194 -0.43864 35976 ft 412 kts 336°
2026-04-22 12:58 45.90564 -0.46769 35974 ft 412 kts 336°
2026-04-22 12:59 45.95938 -0.49678 35988 ft 413 kts 336°
2026-04-22 12:59 46.01317 -0.52587 35993 ft 413 kts 336°
2026-04-22 13:00 46.06658 -0.55491 35982 ft 413 kts 336°
2026-04-22 13:00 46.12033 -0.58427 35987 ft 413 kts 335°
2026-04-22 13:01 46.17409 -0.61362 35994 ft 413 kts 335°
2026-04-22 13:01 46.22781 -0.64303 35994 ft 413 kts 335°
2026-04-22 13:02 46.28161 -0.67256 35995 ft 414 kts 335°
2026-04-22 13:02 46.33541 -0.70216 35996 ft 414 kts 335°
2026-04-22 13:03 46.38925 -0.73182 35999 ft 414 kts 335°
2026-04-22 13:03 46.44313 -0.76149 36003 ft 414 kts 335°
2026-04-22 13:04 46.49701 -0.79121 36008 ft 414 kts 335°
2026-04-22 13:04 46.55083 -0.82104 36008 ft 414 kts 335°
2026-04-22 13:05 46.59562 -0.84591 36011 ft 414 kts 335°
2026-04-22 13:05 46.64944 -0.87586 36015 ft 415 kts 335°
2026-04-22 13:06 46.70334 -0.90593 36015 ft 415 kts 335°
2026-04-22 13:06 46.76594 -0.94090 36019 ft 415 kts 335°
2026-04-22 13:07 46.81985 -0.97108 36023 ft 415 kts 335°
2026-04-22 13:07 46.86499 -0.99643 36019 ft 415 kts 335°
2026-04-22 13:08 46.91892 -1.02685 36024 ft 416 kts 336°
2026-04-22 13:08 46.97557 -1.04383 36029 ft 423 kts 351°
2026-04-22 13:09 47.03424 -1.05157 36031 ft 424 kts 351°
2026-04-22 13:09 47.09296 -1.05951 36034 ft 424 kts 351°
2026-04-22 13:10 47.15169 -1.06756 36034 ft 424 kts 350°
2026-04-22 13:10 47.21041 -1.07568 36038 ft 424 kts 350°
2026-04-22 13:11 47.26915 -1.08373 36044 ft 424 kts 351°
2026-04-22 13:11 47.32791 -1.09176 36047 ft 424 kts 351°
2026-04-22 13:12 47.38668 -1.09980 36053 ft 424 kts 351°
2026-04-22 13:12 47.44546 -1.10781 36050 ft 424 kts 351°
2026-04-22 13:13 47.50427 -1.11593 36060 ft 424 kts 351°
2026-04-22 13:13 47.56309 -1.12409 36059 ft 425 kts 351°
2026-04-22 13:14 47.62153 -1.13223 36065 ft 425 kts 351°
2026-04-22 13:14 47.68033 -1.14041 36071 ft 425 kts 351°
2026-04-22 13:15 47.73916 -1.14856 36074 ft 424 kts 351°
2026-04-22 13:15 47.79796 -1.15683 36080 ft 424 kts 351°
2026-04-22 13:16 47.85675 -1.16509 36084 ft 424 kts 351°
2026-04-22 13:16 47.91554 -1.17333 36090 ft 424 kts 351°
2026-04-22 13:17 47.97433 -1.18155 36094 ft 425 kts 351°
2026-04-22 13:17 48.03359 -1.18989 36094 ft 429 kts 351°
2026-04-22 13:18 48.09307 -1.19831 36100 ft 430 kts 351°
2026-04-22 13:18 48.15253 -1.20675 36100 ft 430 kts 351°
2026-04-22 13:19 48.21206 -1.21513 36103 ft 430 kts 351°
2026-04-22 13:19 48.27118 -1.22349 36103 ft 430 kts 351°
2026-04-22 13:20 48.33067 -1.23198 36105 ft 430 kts 351°
2026-04-22 13:20 48.39015 -1.24051 36109 ft 429 kts 351°
2026-04-22 13:21 48.44964 -1.24907 36113 ft 429 kts 351°
2026-04-22 13:21 48.50914 -1.25762 36119 ft 429 kts 351°
2026-04-22 13:22 48.56862 -1.26615 36122 ft 429 kts 351°
2026-04-22 13:22 48.62809 -1.27475 36125 ft 429 kts 351°
2026-04-22 13:23 48.68754 -1.28343 36128 ft 429 kts 351°
2026-04-22 13:23 48.74700 -1.29156 36132 ft 433 kts 355°
2026-04-22 13:24 48.80768 -1.29165 36136 ft 438 kts 357°
2026-04-22 13:24 48.86866 -1.28978 36142 ft 438 kts 357°
2026-04-22 13:25 48.92928 -1.28792 36147 ft 438 kts 357°
2026-04-22 13:25 48.99029 -1.28662 36154 ft 439 kts 356°
2026-04-22 13:26 49.05135 -1.28541 36159 ft 439 kts 357°
2026-04-22 13:26 49.11241 -1.28422 36164 ft 439 kts 356°
2026-04-22 13:27 49.17342 -1.28294 36166 ft 439 kts 357°
2026-04-22 13:27 49.23451 -1.28168 36172 ft 439 kts 356°
2026-04-22 13:28 49.29562 -1.28051 36175 ft 439 kts 356°
2026-04-22 13:28 49.35674 -1.27925 36182 ft 439 kts 356°
2026-04-22 13:29 49.41787 -1.27798 36185 ft 439 kts 356°
2026-04-22 13:29 49.47899 -1.27668 36189 ft 439 kts 356°
2026-04-22 13:30 49.54011 -1.27534 36193 ft 439 kts 356°
2026-04-22 13:30 49.60124 -1.27404 36194 ft 439 kts 356°
2026-04-22 13:31 49.66232 -1.27272 36195 ft 439 kts 356°
2026-04-22 13:31 49.72346 -1.27135 36193 ft 439 kts 356°
2026-04-22 13:32 49.78421 -1.27012 36200 ft 439 kts 356°
2026-04-22 13:32 49.84525 -1.26888 36209 ft 439 kts 356°
2026-04-22 13:33 49.90636 -1.26766 36217 ft 439 kts 356°
2026-04-22 13:33 49.96749 -1.26634 36234 ft 439 kts 356°
2026-04-22 13:34 50.02864 -1.26501 36240 ft 439 kts 356°
2026-04-22 13:34 50.08979 -1.26358 36246 ft 439 kts 356°
2026-04-22 13:35 50.15095 -1.26225 36247 ft 439 kts 356°
2026-04-22 13:35 50.21209 -1.26139 36248 ft 438 kts 353°
2026-04-22 13:36 50.27272 -1.26807 36259 ft 436 kts 351°
2026-04-22 13:36 50.33310 -1.27673 36260 ft 436 kts 350°
2026-04-22 13:37 50.39351 -1.28563 36264 ft 436 kts 351°
2026-04-22 13:37 50.45398 -1.29414 36267 ft 436 kts 351°
2026-04-22 13:38 50.51447 -1.30235 36267 ft 436 kts 351°
2026-04-22 13:38 50.60514 -1.31448 36270 ft 436 kts 351°
2026-04-22 13:39 50.66521 -1.32275 36272 ft 436 kts 351°
2026-04-22 13:39 50.72572 -1.33124 36273 ft 436 kts 351°
2026-04-22 13:40 50.78660 -1.33972 36276 ft 437 kts 351°
2026-04-22 13:40 50.84713 -1.34808 36274 ft 436 kts 352°
2026-04-22 13:41 50.90760 -1.35647 36274 ft 436 kts 352°
2026-04-22 13:41 50.96813 -1.36483 36274 ft 437 kts 352°
2026-04-22 13:42 51.02866 -1.37329 36275 ft 437 kts 352°
2026-04-22 13:42 51.08882 -1.38188 36276 ft 437 kts 352°
2026-04-22 13:43 51.14943 -1.39043 36276 ft 437 kts 352°
2026-04-22 13:43 51.20998 -1.39892 36276 ft 437 kts 352°
2026-04-22 13:44 51.27062 -1.40741 36275 ft 437 kts 352°
2026-04-22 13:44 51.33127 -1.41595 36277 ft 438 kts 352°
2026-04-22 13:45 51.39193 -1.42445 36280 ft 438 kts 352°
2026-04-22 13:45 51.45266 -1.43291 36300 ft 438 kts 352°
2026-04-22 13:46 51.51330 -1.44169 36307 ft 438 kts 352°
2026-04-22 13:46 51.57399 -1.45049 36316 ft 438 kts 352°
2026-04-22 13:47 51.63468 -1.45921 36323 ft 438 kts 352°
2026-04-22 13:47 51.69541 -1.46810 36329 ft 438 kts 352°
2026-04-22 13:48 51.75605 -1.47693 36330 ft 438 kts 352°
2026-04-22 13:48 51.81676 -1.48573 36328 ft 438 kts 352°
2026-04-22 13:49 51.87749 -1.49442 36326 ft 438 kts 352°
2026-04-22 13:49 51.93823 -1.50321 36325 ft 438 kts 352°
2026-04-22 13:50 51.99858 -1.51213 36322 ft 438 kts 352°
2026-04-22 13:50 52.05936 -1.52099 36382 ft 439 kts 352°
2026-04-22 13:51 52.12010 -1.52988 36398 ft 439 kts 352°
2026-04-22 13:51 52.18092 -1.53889 36404 ft 439 kts 352°
2026-04-22 13:52 52.24182 -1.54781 36400 ft 439 kts 352°
2026-04-22 13:52 52.30269 -1.55685 36390 ft 439 kts 352°
2026-04-22 13:53 52.36352 -1.56585 36351 ft 439 kts 352°
2026-04-22 13:53 52.42450 -1.57491 36356 ft 440 kts 352°
2026-04-22 13:54 52.48543 -1.58387 36355 ft 439 kts 352°
2026-04-22 13:54 52.54629 -1.59304 36352 ft 439 kts 352°
2026-04-22 13:55 52.57673 -1.59768 36238 ft 439 kts 352°
2026-04-22 13:55 52.60715 -1.60228 36242 ft 439 kts 352°
2026-04-22 13:55 52.66797 -1.61140 36247 ft 439 kts 352°
2026-04-22 13:56 52.72852 -1.62048 36260 ft 438 kts 352°
2026-04-22 13:56 52.77904 -1.62808 36378 ft 438 kts 352°
2026-04-22 13:57 52.83965 -1.63728 36376 ft 438 kts 352°
2026-04-22 13:57 52.90027 -1.64656 36377 ft 437 kts 352°
2026-04-22 13:58 52.96084 -1.65575 36375 ft 437 kts 352°
2026-04-22 13:58 53.02140 -1.66505 36379 ft 437 kts 352°
2026-04-22 13:59 53.08028 -1.68591 36377 ft 432 kts 337°
2026-04-22 13:59 53.13659 -1.72084 36385 ft 432 kts 337°
2026-04-22 14:00 53.19287 -1.75599 36381 ft 432 kts 337°
2026-04-22 14:00 53.24914 -1.79107 36385 ft 432 kts 337°
2026-04-22 14:01 53.30537 -1.82609 36386 ft 432 kts 337°
2026-04-22 14:01 53.36169 -1.86131 36383 ft 432 kts 337°
2026-04-22 14:02 53.41804 -1.89667 36385 ft 433 kts 337°
2026-04-22 14:02 53.47442 -1.93223 36389 ft 433 kts 337°
2026-04-22 14:03 53.53071 -1.96782 36388 ft 433 kts 337°
2026-04-22 14:03 53.58709 -2.00359 36390 ft 433 kts 337°
2026-04-22 14:04 53.64351 -2.03947 36404 ft 434 kts 337°
2026-04-22 14:04 53.69959 -2.07511 36409 ft 433 kts 337°
2026-04-22 14:05 53.75600 -2.11103 36409 ft 433 kts 336°
2026-04-22 14:06 53.83990 -2.16805 36406 ft 433 kts 335°
2026-04-22 14:06 53.89568 -2.20681 36407 ft 433 kts 335°
2026-04-22 14:07 53.95153 -2.24526 36404 ft 434 kts 335°
2026-04-22 14:07 54.00744 -2.28379 36411 ft 433 kts 335°
2026-04-22 14:08 54.06334 -2.32236 36416 ft 433 kts 335°
2026-04-22 14:08 54.11925 -2.36090 36420 ft 433 kts 335°
2026-04-22 14:09 54.17494 -2.39940 36059 ft 431 kts 335°
2026-04-22 14:09 54.20279 -2.41873 35812 ft 432 kts 335°
2026-04-22 14:09 54.23069 -2.43817 35604 ft 432 kts 335°
2026-04-22 14:09 54.25844 -2.45754 35494 ft 430 kts 335°
2026-04-22 14:10 54.28620 -2.47697 35380 ft 434 kts 335°
2026-04-22 14:10 54.34301 -2.51684 35235 ft 448 kts 335°
2026-04-22 14:11 54.40114 -2.55757 35280 ft 452 kts 335°
2026-04-22 14:11 54.45936 -2.59849 35282 ft 451 kts 335°
2026-04-22 14:11 54.48830 -2.61881 35169 ft 448 kts 337°
2026-04-22 14:12 54.51837 -2.63348 34986 ft 451 kts 343°
2026-04-22 14:12 54.54899 -2.64605 34050 ft 453 kts 343°
2026-04-22 14:12 54.57955 -2.65853 33085 ft 450 kts 343°
2026-04-22 14:12 54.60993 -2.67091 32593 ft 449 kts 343°
2026-04-22 14:13 54.64045 -2.68337 32336 ft 452 kts 343°
2026-04-22 14:13 54.67110 -2.69593 32081 ft 453 kts 343°
2026-04-22 14:13 54.70178 -2.70859 31353 ft 455 kts 343°
2026-04-22 14:13 54.73264 -2.72137 30299 ft 455 kts 343°
2026-04-22 14:14 54.76307 -2.73399 29618 ft 457 kts 343°
2026-04-22 14:14 54.79406 -2.74685 28953 ft 459 kts 343°
2026-04-22 14:14 54.82519 -2.75980 28302 ft 461 kts 343°
2026-04-22 14:14 54.85647 -2.77281 27662 ft 463 kts 343°
2026-04-22 14:15 54.88790 -2.78584 27042 ft 465 kts 343°
2026-04-22 14:15 54.91948 -2.79896 26432 ft 468 kts 343°
2026-04-22 14:15 54.95121 -2.81218 25835 ft 470 kts 343°
2026-04-22 14:15 54.98300 -2.82543 25251 ft 472 kts 343°
2026-04-22 14:16 55.01497 -2.83880 24680 ft 472 kts 343°
2026-04-22 14:16 55.04689 -2.85220 24238 ft 472 kts 343°
2026-04-22 14:16 55.07883 -2.86563 23772 ft 472 kts 343°
2026-04-22 14:16 55.11070 -2.87902 23346 ft 470 kts 343°
2026-04-22 14:17 55.14167 -2.89621 22937 ft 464 kts 333°
2026-04-22 14:17 55.16890 -2.92482 22434 ft 449 kts 321°
2026-04-22 14:17 55.19373 -2.95727 21574 ft 443 kts 320°
2026-04-22 14:17 55.21814 -2.98990 20636 ft 441 kts 320°
2026-04-22 14:18 55.24239 -3.02282 19850 ft 442 kts 320°
2026-04-22 14:18 55.26704 -3.05655 19610 ft 456 kts 320°
2026-04-22 14:18 55.29218 -3.09095 19371 ft 460 kts 320°
2026-04-22 14:18 55.31748 -3.12548 19132 ft 461 kts 320°
2026-04-22 14:19 55.34285 -3.16001 18895 ft 461 kts 320°
2026-04-22 14:19 55.36826 -3.19452 18640 ft 461 kts 321°
2026-04-22 14:19 55.39364 -3.22899 18369 ft 460 kts 321°
2026-04-22 14:19 55.41892 -3.26336 18091 ft 459 kts 321°
2026-04-22 14:20 55.46893 -3.33158 17283 ft 446 kts 321°
2026-04-22 14:20 55.49320 -3.36485 16605 ft 439 kts 321°
2026-04-22 14:20 55.51695 -3.39745 15539 ft 427 kts 321°
2026-04-22 14:21 55.56320 -3.46112 12882 ft 415 kts 321°
2026-04-22 14:21 55.58576 -3.49223 11552 ft 408 kts 321°
2026-04-22 14:22 55.63015 -3.55351 9602 ft 402 kts 322°
2026-04-22 14:22 55.65176 -3.58333 8890 ft 397 kts 323°
2026-04-22 14:22 55.69733 -3.63613 7541 ft 383 kts 329°
2026-04-22 14:23 55.71946 -3.66055 7218 ft 366 kts 329°
2026-04-22 14:23 55.74027 -3.68345 6892 ft 337 kts 329°
2026-04-22 14:23 55.75944 -3.70462 6558 ft 312 kts 329°
2026-04-22 14:23 55.77726 -3.72432 6243 ft 291 kts 329°
2026-04-22 14:24 55.79403 -3.74232 5934 ft 272 kts 336°
2026-04-22 14:24 55.81155 -3.74817 5583 ft 249 kts 13°
2026-04-22 14:24 55.82647 -3.73534 5010 ft 241 kts 52°
2026-04-22 14:24 55.83560 -3.71013 4310 ft 248 kts 65°
2026-04-22 14:25 55.84392 -3.68344 3899 ft 244 kts 64°
2026-04-22 14:25 55.85290 -3.65673 3208 ft 254 kts 62°
2026-04-22 14:25 55.86192 -3.63063 3047 ft 241 kts 61°
2026-04-22 14:25 55.87030 -3.60627 2954 ft 220 kts 61°
2026-04-22 14:26 55.87806 -3.58362 2746 ft 212 kts 62°
2026-04-22 14:26 55.88572 -3.56119 2444 ft 206 kts 61°
2026-04-22 14:26 55.89284 -3.54040 2187 ft 188 kts 61°
2026-04-22 14:26 55.89935 -3.52136 1958 ft 171 kts 61°
2026-04-22 14:27 55.90520 -3.50421 1704 ft 154 kts 62°
2026-04-22 14:27 55.91053 -3.48869 1499 ft 142 kts 62°
2026-04-22 14:27 55.91565 -3.47428 1278 ft 134 kts 60°
2026-04-22 14:27 55.92061 -3.46056 1094 ft 129 kts 61°
2026-04-22 14:28 55.92510 -3.44702 927 ft 126 kts 64°
2026-04-22 14:28 55.92940 -3.43326 738 ft 127 kts 60°
2026-04-22 14:28 55.93386 -3.41984 552 ft 126 kts 60°
2026-04-22 14:28 55.93842 -3.40660 369 ft 124 kts 58°
2026-04-22 14:29 55.94282 -3.39363 240 ft 124 kts 59°
2026-04-22 14:29 55.94724 -3.38065 124 ft 114 kts 59°
2026-04-22 14:29 55.95037 -3.37145 112 ft 66 kts 59°
2026-04-22 14:29 55.95218 -3.36610 112 ft 33 kts 59°
2026-04-22 14:30 55.95263 -3.36449 109 ft 8 kts 95°
2026-04-22 14:30 55.95216 -3.36373 108 ft 10 kts 150°
2026-04-22 14:30 55.95161 -3.36316 109 ft 8 kts 150°
2026-04-22 14:30 55.95116 -3.36340 109 ft 7 kts 223°
2026-04-22 14:31 55.95081 -3.36438 112 ft 11 kts 240°
2026-04-22 14:31 55.95061 -3.36498 112 ft 1 kts 240°
2026-04-22 14:31 55.95059 -3.36506 112 ft 0 kts 240°
2026-04-22 14:32 55.95058 -3.36510 112 ft 2 kts 240°
2026-04-22 14:32 55.95047 -3.36545 111 ft 5 kts 241°
2026-04-22 14:32 55.95019 -3.36625 110 ft 10 kts 238°
2026-04-22 14:33 55.94979 -3.36741 112 ft 10 kts 238°
2026-04-22 14:33 55.94940 -3.36819 111 ft 9 kts 202°
2026-04-22 14:33 55.94889 -3.36795 108 ft 9 kts 156°
2026-04-22 14:33 55.94808 -3.36779 105 ft 15 kts 174°
2026-04-22 14:34 55.94731 -3.36739 104 ft 11 kts 172°
2026-04-22 14:34 55.94675 -3.36734 104 ft 5 kts 162°
2026-04-22 14:34 55.94659 -3.36661 102 ft 9 kts 86°
2026-04-22 14:34 55.94659 -3.36619 101 ft 2 kts 90°
2026-04-22 14:35 55.94659 -3.36617 101 ft 0 kts 91°